Content
SEND FEEDBACK

Daily
Averages
Monthly
Summary
United States of America

BEAVER ISLAND, MICHIGAN


Home > North America > United States > Michigan
Elevation: 627 feet     Latitude: 45 43N     Longitude: 085 31W

WEATHER
 
SELECT A DAY
Number of Records: 327,882;   Date Range: 9/12/01 - 10/19/14
 
SHARE

PRINT THIS DATA

[ ← Previous Day ]
WEATHER ALMANAC - JANUARY 20, 2014
[ Next Day → ]
[ °C ]   °F
Weather ElementAverageHighLow
Temperature8.3 °F14.5 °F (1:35 am)4.3 °F (11:15 pm)
Dewpoint1.5 °F9.7 °F (12:55 am)-2.6 °F (11:55 am)
Humidity74 %84 % (12:55 am)64 % (2:55 pm)
Barometer29.91 in30.14 in (11:36 pm)29.59 in (12:35 am)
Wind Speed6 mph11.5 mph (8:55 am)
Wind Gust16.1 mph (8:56 pm)
Weather ElementAverage
Visibility8.5 mi
Wind DirectionSSW (211.5 °)

Weather ElementTotal
Precipitation---
Heating Degree Days55.6 (Base 65)
Averaged from 71 records on January 20, 2014
WEATHER CONDITIONS BREAKOUT
WIND DIRECTION BREAKOUT
WEATHER BY HOUR - JANUARY 20, 2014
[ °C ]   °F
Local TimeTemperatureDewpointHumidityBarometerVisibilityWind DirectionWind SpeedGust SpeedPrecipitationEventsConditions
12:35 AM13.8 °F9.3 °F82 %29.59 in10.0 miNNW (330°)4.6 mphSnowLight Snow
12:55 AM13.8 °F9.7 °F84 %29.60 in10.0 miNNW (330°)5.8 mphSnowLight Snow
1:15 AM14.2 °F8.6 °F78 %29.60 in10.0 miNNW (340°)4.6 mphOvercast
1:35 AM14.5 °F7.2 °F73 %29.61 in10.0 miNorth (350°)6.9 mphOvercast
1:55 AM14.0 °F6.8 °F73 %29.61 in10.0 miNorth (360°)5.8 mphOvercast
2:15 AM13.5 °F7.3 °F77 %29.63 in10.0 miNorth (10°)9.2 mphOvercast
2:35 AM12.9 °F6.8 °F77 %29.64 in10.0 miNorth (360°)8.1 mphOvercast
2:56 AM12.2 °F6.4 °F78 %29.65 in10.0 miNorth (360°)5.8 mphOvercast
3:15 AM11.8 °F5.7 °F76 %29.67 in10.0 miNorth (360°)6.9 mphOvercast
3:35 AM11.7 °F5.4 °F76 %29.68 in10.0 miNorth (10°)6.9 mphOvercast
3:55 AM11.3 °F4.6 °F75 %29.69 in10.0 miNorth (360°)6.9 mphOvercast
4:15 AM11.1 °F4.6 °F75 %29.70 in10.0 miNorth (10°)5.8 mphOvercast
4:35 AM10.9 °F4.6 °F76 %29.71 in10.0 miNNW (340°)6.9 mphOvercast
4:55 AM10.8 °F4.8 °F77 %29.74 in10.0 miNorth (350°)5.8 mphOvercast
5:15 AM10.8 °F4.1 °F75 %29.74 in10.0 miNorth (350°)9.2 mphOvercast
5:36 AM10.2 °F3.2 °F73 %29.75 in10.0 miNorth (350°)8.1 mphOvercast
5:55 AM10.2 °F2.7 °F72 %29.77 in10.0 miNorth (350°)5.8 mphOvercast
6:15 AM10.0 °F2.7 °F72 %29.77 in10.0 miNorth (360°)6.9 mphOvercast
6:35 AM9.9 °F2.7 °F73 %29.78 in10.0 miNorth (360°)6.9 mphOvercast
6:55 AM9.5 °F2.5 °F73 %29.78 in10.0 miNorth (10°)5.8 mphOvercast
7:16 AM9.3 °F3.2 °F76 %29.78 in7.0 miNNE (20°)5.8 mphOvercast
7:35 AM8.8 °F3.7 °F80 %29.79 in5.0 miNNE (30°)5.8 mphHaze
7:55 AM8.4 °F3.4 °F80 %29.80 in4.0 miNNE (30°)6.9 mphSnowLight Snow
8:16 AM7.7 °F3.2 °F82 %29.80 in2.0 miNE (40°)6.9 mphSnowLight Snow
8:35 AM7.0 °F2.5 °F82 %29.82 in2.0 miNNE (30°)5.8 mphSnowLight Snow
8:55 AM6.4 °F1.9 °F82 %29.83 in2.5 miNE (40°)11.5 mphSnowLight Snow
9:15 AM5.9 °F0.5 °F78 %29.84 in4.0 miNE (40°)10.4 mphHaze
9:35 AM5.7 °F0.3 °F78 %29.86 in3.0 miNE (40°)6.9 mphHaze
9:55 AM5.5 °F0.0 °F78 %29.88 in3.0 miNNE (30°)9.2 mphHaze
10:15 AM5.4 °F-0.6 °F76 %29.89 in5.0 miNNE (30°)6.9 mphHaze
10:35 AM5.5 °F-0.6 °F76 %29.91 in3.0 miNE (50°)4.6 mphHaze
10:56 AM5.7 °F-0.6 °F75 %29.92 in4.0 miENE (70°)8.1 mphHaze
11:15 AM5.7 °F-1.3 °F73 %29.93 in10.0 miNE (50°)6.9 mphMostly Cloudy
11:35 AM5.9 °F-2.4 °F69 %29.93 in10.0 miENE (70°)5.8 mphMostly Cloudy
11:55 AM5.9 °F-2.6 °F68 %29.94 in10.0 miNNE (30°)6.9 mphScattered Clouds
12:15 PM5.9 °F-2.2 °F69 %29.95 in10.0 miNE (50°)5.8 mphClear
12:35 PM6.3 °F-2.4 °F68 %29.95 in10.0 miNNE (30°)4.6 mphScattered Clouds
12:55 PM6.4 °F-2.2 °F68 %29.95 in10.0 miCalmScattered Clouds
1:15 PM6.6 °F-2.2 °F67 %29.94 in10.0 miCalmScattered Clouds
1:35 PM7.3 °F-1.8 °F66 %29.95 in10.0 miCalmScattered Clouds
1:55 PM7.3 °F-1.3 °F68 %29.95 in7.0 miNE (40°)3.5 mphOvercast
2:15 PM7.5 °F-0.6 °F70 %29.95 in7.0 miCalmMostly Cloudy
2:36 PM8.2 °F-1.3 °F65 %29.96 in10.0 miNW (320°)5.8 mphMostly Cloudy
2:55 PM8.2 °F-1.7 °F64 %29.96 in10.0 miNW (310°)5.8 mphOvercast
3:15 PM8.1 °F-1.7 °F65 %29.97 in10.0 miNW (320°)4.6 mphOvercast
3:35 PM8.2 °F-0.9 °F66 %29.98 in10.0 miWNW (290°)4.6 mphOvercast
3:55 PM8.1 °F-0.6 °F68 %30.00 in10.0 miNorth (350°)3.5 mphMostly Cloudy
4:15 PM8.2 °F-0.6 °F67 %30.01 in10.0 miNW (310°)3.5 mphScattered Clouds
4:35 PM8.1 °F-0.4 °F68 %30.02 in10.0 miCalmMostly Cloudy
4:55 PM8.2 °F0.1 °F70 %30.03 in10.0 miNW (320°)4.6 mphOvercast
5:16 PM8.1 °F0.5 °F71 %30.04 in7.0 miNorth (360°)6.9 mphOvercast
5:35 PM7.5 °F0.0 °F71 %30.05 in10.0 miNorth (360°)4.6 mphMostly Cloudy
5:55 PM7.3 °F-0.8 °F69 %30.06 in10.0 miNorth (350°)3.5 mphMostly Cloudy
6:16 PM7.7 °F-1.3 °F67 %30.07 in10.0 miNorth (350°)6.9 mphOvercast
6:35 PM7.3 °F-2.2 °F65 %30.08 in10.0 miCalmMostly Cloudy
6:55 PM7.2 °F-2.6 °F64 %30.08 in10.0 miNW (320°)9.2 mphScattered Clouds
7:15 PM6.8 °F-2.4 °F66 %30.09 in10.0 miNNW (330°)5.8 mphClear
7:35 PM6.8 °F-1.7 °F68 %30.10 in10.0 miNNW (330°)8.1 mphClear
7:56 PM6.6 °F-0.8 °F72 %30.10 in10.0 miNNW (330°)3.5 mphScattered Clouds
8:15 PM6.8 °F0.0 °F74 %30.10 in10.0 miNW (310°)8.1 mphScattered Clouds
8:35 PM7.5 °F0.7 °F74 %30.10 in10.0 miNW (320°)8.1 mphMostly Cloudy
8:56 PM7.7 °F2.1 °F78 %30.10 in10.0 miNW (310°)10.4 mph16.1 mphOvercast
9:15 PM7.7 °F2.5 °F79 %30.11 in7.0 miWNW (300°)8.1 mphSnowLight Snow
9:35 PM6.8 °F2.3 °F82 %30.11 in5.0 miWNW (300°)8.1 mphSnowLight Snow
9:55 PM6.6 °F2.1 °F82 %30.11 in7.0 miNW (310°)8.1 mphOvercast
10:15 PM5.7 °F1.0 °F81 %30.12 in10.0 miWNW (300°)8.1 mphScattered Clouds
10:35 PM5.4 °F0.9 °F82 %30.12 in10.0 miWNW (300°)6.9 mphSnowLight Snow
10:55 PM5.0 °F0.9 °F83 %30.13 in7.0 miWNW (300°)6.9 mphSnowLight Snow
11:15 PM4.3 °F0.5 °F84 %30.13 in10.0 miNW (320°)6.9 mphScattered Clouds
11:36 PM4.5 °F0.7 °F84 %30.14 in10.0 miNW (310°)6.9 mphSnowLight Snow
11:55 PM5.0 °F1.0 °F84 %30.14 in5.0 miNW (320°)6.9 mphSnowLight Snow
Hourly data recorded from KSJX, located miles away from Beaver Island, Michigan







STORIES FROM OUR PARTNERS